User: anonymous   Login
Location: Roanoke
(37.2710°N, 79.9420°W)
Time: 23:35:01
(UTC-04:00)
Language:

FENGYUN 3A - Orbit

View from above orbital plane
View from above orbital plane
View from above satellite
View from above satellite

Ground track
Ground track

The orbit data is extracted from the following two-line orbital elements,

1 32958U 08026A   16270.83067614  .00000009  00000-0  24069-4 0  9998
2 32958  98.4436 306.2420 0009350 332.1667  27.9001 14.19631899431979
Epoch (UTC): 26 September 2016 19:56:10
Eccentricity: 0.0009350
inclination: 98.4436°
perigee height: 820 km
apogee height: 833 km
right ascension of ascending node: 306.2420°
argument of perigee: 332.1667°
revolutions per day: 14.19631899
mean anomaly at epoch: 27.9001°
orbit number at epoch: 43197

The dashed part of the orbit path shows where the satellite is in the earth's shadow,  

DLR